| time (UTC) | temp C | wind direction | speed KPH | gust KPH | rain 1hr cm | rain 24hr cm | rain mn cm | humidity % | barometer mb |
| 20260507074508 | 12 | 223 | 6.4 | 20.9 | 0.00 | 0.00 | 0.00 | 45 | 1015.1 |
| 20260507073110 | 12 | 237 | 6.4 | 17.7 | 0.00 | 0.00 | 0.00 | 49 | 1015.1 |
| 20260507071559 | 11 | 300 | 4.8 | 17.7 | 0.00 | 0.00 | 0.00 | 52 | 1015.1 |
| 20260507070134 | 10 | 266 | 6.4 | 12.9 | 0.00 | 0.00 | 0.00 | 53 | 1015.2 |
| 20260507064549 | 9 | 331 | 1.6 | 9.7 | 0.00 | 0.00 | 0.00 | 55 | 1015.1 |
| 20260507063041 | 9 | 325 | 6.4 | 14.5 | 0.00 | 0.00 | 0.00 | 54 | 1015.1 |
| 20260507061537 | 9 | 344 | 6.4 | 17.7 | 0.00 | 0.00 | 0.00 | 53 | 1015.1 |
| 20260507060033 | 10 | 311 | 4.8 | 12.9 | 0.00 | 0.00 | 0.00 | 50 | 1015.1 |
| 20260507054528 | 10 | 206 | 1.6 | 6.4 | 0.00 | 0.00 | 0.00 | 54 | 1015.0 |
| 20260507053024 | 8 | 209 | 1.6 | 6.4 | 0.00 | 0.00 | 0.00 | 55 | 1015.1 |
| 20260507051519 | 7 | 199 | 1.6 | 6.4 | 0.00 | 0.00 | 0.00 | 32 | 1014.9 |
| 20260507050029 | 5 | 186 | 0.0 | 1.6 | 0.00 | 0.00 | 0.00 | 13 | 1014.9 |
| 20260507044526 | 5 | 186 | 0.0 | 0.0 | 0.00 | 0.00 | 0.00 | 3 | 1014.8 |
| 20260507043007 | 3 | 186 | 0.0 | 1.6 | 0.00 | 0.00 | 0.00 | 1 | 1014.7 |
| 20260507041503 | 3 | 186 | 0.0 | 0.0 | 0.00 | 0.00 | 0.00 | 1 | 1014.7 |
| 20260507040059 | 2 | 186 | 0.0 | 0.0 | 0.00 | 0.00 | 0.00 | 1 | 1014.7 |
| 20260507034554 | 1 | 186 | 0.0 | 0.0 | 0.00 | 0.00 | 0.00 | 1 | 1014.5 |
| 20260507033050 | 1 | 186 | 0.0 | 3.2 | 0.00 | 0.00 | 0.00 | 1 | 1014.3 |
| 20260507031545 | 1 | 186 | 0.0 | 1.6 | 0.00 | 0.00 | 0.00 | 1 | 1014.2 |
| 20260507030043 | 1 | 186 | 0.0 | 0.0 | 0.00 | 0.00 | 0.00 | 1 | 1014.2 |
| 20260507024537 | 1 | 186 | 0.0 | 1.6 | 0.00 | 0.00 | 0.00 | 1 | 1014.1 |
| 20260507023034 | 2 | 186 | 0.0 | 3.2 | 0.00 | 0.00 | 0.00 | 12 | 1014.0 |
| 20260507021529 | 2 | 186 | 0.0 | 0.0 | 0.00 | 0.00 | 0.00 | 19 | 1013.9 |
| 20260507020024 | 2 | 186 | 0.0 | 3.2 | 0.00 | 0.00 | 0.00 | 34 | 1014.0 |
| 20260507014522 | 3 | 186 | 1.6 | 4.8 | 0.00 | 0.00 | 0.00 | 46 | 1013.8 |
| 20260507013015 | 4 | 186 | 0.0 | 0.0 | 0.00 | 0.00 | 0.00 | 52 | 1013.8 |
| 20260507011511 | 5 | 186 | 0.0 | 4.8 | 0.00 | 0.00 | 0.00 | 55 | 1013.6 |
| 20260507010009 | 6 | 186 | 4.8 | 8.0 | 0.00 | 0.00 | 0.00 | 56 | 1013.6 |
| 20260507004506 | 6 | 186 | 4.8 | 6.4 | 0.00 | 0.00 | 0.00 | 57 | 1013.5 |
| 20260507003004 | 6 | 184 | 4.8 | 11.3 | 0.00 | 0.00 | 0.00 | 57 | 1013.5 |
| 20260507001505 | 6 | 156 | 6.4 | 16.1 | 0.00 | 0.00 | 0.00 | 56 | 1013.5 |
| 20260507000101 | 7 | 188 | 6.4 | 16.1 | 0.00 | 0.00 | 0.00 | 56 | 1013.5 |
| 20260506234559 | 7 | 171 | 8.0 | 16.1 | 0.00 | 0.00 | 0.00 | 56 | 1013.5 |
| 20260506233057 | 7 | 182 | 3.2 | 11.3 | 0.00 | 0.00 | 0.00 | 53 | 1013.4 |
| 20260506231555 | 7 | 149 | 3.2 | 11.3 | 0.00 | 0.00 | 0.00 | 52 | 1013.5 |
| 20260506224550 | 7 | 144 | 3.2 | 8.0 | 0.00 | 0.00 | 0.00 | 52 | 1013.3 |
| 20260506223048 | 7 | 165 | 1.6 | 9.7 | 0.00 | 0.00 | 0.00 | 52 | 1013.3 |
| 20260506221548 | 7 | 186 | 3.2 | 8.0 | 0.00 | 0.00 | 0.00 | 49 | 1013.3 |
| 20260506220047 | 7 | 182 | 1.6 | 8.0 | 0.00 | 0.00 | 0.00 | 48 | 1013.2 |
| 20260506214544 | 7 | 159 | 3.2 | 8.0 | 0.00 | 0.00 | 0.00 | 49 | 1013.2 |
| 20260506213037 | 7 | 146 | 1.6 | 6.4 | 0.00 | 0.00 | 0.00 | 49 | 1013.0 |
| 20260506211533 | 7 | 153 | 1.6 | 11.3 | 0.00 | 0.00 | 0.00 | 51 | 1012.9 |
| 20260506210028 | 7 | 150 | 4.8 | 12.9 | 0.00 | 0.00 | 0.00 | 53 | 1012.9 |
| 20260506204525 | 8 | 143 | 4.8 | 12.9 | 0.00 | 0.00 | 0.00 | 54 | 1012.8 |
| 20260506203019 | 8 | 159 | 6.4 | 11.3 | 0.00 | 0.00 | 0.00 | 54 | 1012.8 |
| 20260506201519 | 8 | 144 | 4.8 | 12.9 | 0.00 | 0.00 | 0.00 | 53 | 1012.7 |
| 20260506200014 | 8 | 125 | 6.4 | 16.1 | 0.00 | 0.00 | 0.00 | 53 | 1012.7 |
| 20260506194506 | 8 | 124 | 4.8 | 12.9 | 0.00 | 0.00 | 0.00 | 55 | 1012.6 |
| 20260506193004 | 9 | 121 | 6.4 | 14.5 | 0.00 | 0.00 | 0.00 | 56 | 1012.5 |
| 20260506191559 | 9 | 165 | 3.2 | 14.5 | 0.00 | 0.00 | 0.00 | 55 | 1012.4 |
| 20260506190054 | 10 | 144 | 4.8 | 12.9 | 0.00 | 0.00 | 0.00 | 55 | 1012.3 |
| 20260506184552 | 10 | 155 | 4.8 | 12.9 | 0.00 | 0.00 | 0.00 | 55 | 1012.0 |
| 20260506183044 | 10 | 132 | 6.4 | 16.1 | 0.00 | 0.00 | 0.00 | 55 | 1011.9 |
| 20260506181540 | 10 | 134 | 8.0 | 17.7 | 0.00 | 0.00 | 0.00 | 55 | 1011.7 |
| 20260506180036 | 10 | 156 | 6.4 | 17.7 | 0.00 | 0.00 | 0.00 | 54 | 1011.7 |
| 20260506174531 | 10 | 121 | 8.0 | 17.7 | 0.00 | 0.00 | 0.00 | 53 | 1011.7 |
| 20260506173027 | 11 | 115 | 8.0 | 20.9 | 0.00 | 0.00 | 0.00 | 54 | 1011.7 |
| 20260506171522 | 11 | 155 | 9.7 | 19.3 | 0.00 | 0.00 | 0.00 | 54 | 1011.6 |
| 20260506170017 | 11 | 116 | 9.7 | 22.5 | 0.00 | 0.00 | 0.00 | 54 | 1011.5 |
| 20260506164517 | 12 | 147 | 9.7 | 19.3 | 0.00 | 0.00 | 0.00 | 52 | 1011.4 |
| 20260506163030 | 12 | 115 | 8.0 | 22.5 | 0.00 | 0.00 | 0.00 | 51 | 1011.4 |
| 20260506161513 | 12 | 146 | 11.3 | 22.5 | 0.00 | 0.00 | 0.00 | 50 | 1011.3 |
| 20260506160013 | 12 | 132 | 6.4 | 19.3 | 0.00 | 0.00 | 0.00 | 49 | 1011.3 |
| 20260506154504 | 13 | 125 | 11.3 | 20.9 | 0.00 | 0.00 | 0.00 | 47 | 1011.2 |
| 20260506153059 | 13 | 133 | 8.0 | 17.7 | 0.00 | 0.00 | 0.00 | 44 | 1011.2 |
| 20260506151555 | 13 | 186 | 6.4 | 19.3 | 0.00 | 0.00 | 0.00 | 43 | 1011.2 |
| 20260506150051 | 13 | 171 | 3.2 | 16.1 | 0.00 | 0.00 | 0.00 | 43 | 1011.1 |
| 20260506144545 | 13 | 205 | 3.2 | 11.3 | 0.00 | 0.00 | 0.00 | 42 | 1011.1 |
| 20260506143042 | 13 | 183 | 4.8 | 12.9 | 0.00 | 0.00 | 0.00 | 43 | 1011.2 |
| 20260506141537 | 13 | 211 | 6.4 | 12.9 | 0.00 | 0.00 | 0.00 | 42 | 1011.2 |
| 20260506140038 | 13 | 155 | 4.8 | 14.5 | 0.00 | 0.00 | 0.00 | 43 | 1011.1 |
| 20260506134529 | 13 | 132 | 3.2 | 11.3 | 0.00 | 0.00 | 0.00 | 41 | 1011.0 |
| 20260506133024 | 13 | 89 | 4.8 | 14.5 | 0.00 | 0.00 | 0.00 | 41 | 1011.0 |
| 20260506131522 | 13 | 105 | 8.0 | 20.9 | 0.00 | 0.00 | 0.00 | 41 | 1011.1 |
| 20260506130016 | 13 | 154 | 6.4 | 16.1 | 0.00 | 0.00 | 0.00 | 40 | 1011.2 |
| 20260506124511 | 13 | 130 | 6.4 | 14.5 | 0.00 | 0.00 | 0.00 | 39 | 1011.2 |
| 20260506123007 | 14 | 128 | 6.4 | 16.1 | 0.00 | 0.00 | 0.00 | 38 | 1011.2 |
| 20260506121502 | 15 | 163 | 9.7 | 19.3 | 0.00 | 0.00 | 0.00 | 35 | 1011.3 |
| 20260506120110 | 15 | 199 | 6.4 | 24.1 | 0.00 | 0.00 | 0.00 | 37 | 1011.4 |
| 20260506114609 | 14 | 177 | 8.0 | 19.3 | 0.00 | 0.00 | 0.00 | 37 | 1011.4 |
| 20260506113050 | 13 | 61 | 8.0 | 19.3 | 0.00 | 0.00 | 0.00 | 36 | 1011.5 |
| 20260506111551 | 13 | 118 | 8.0 | 16.1 | 0.00 | 0.00 | 0.00 | 36 | 1011.7 |
| 20260506110042 | 12 | 48 | 9.7 | 17.7 | 0.00 | 0.00 | 0.00 | 39 | 1011.7 |
| 20260506104541 | 13 | 149 | 8.0 | 19.3 | 0.00 | 0.00 | 0.00 | 35 | 1011.8 |
| 20260506103033 | 13 | 152 | 6.4 | 17.7 | 0.00 | 0.00 | 0.00 | 34 | 1011.9 |
| 20260506101528 | 13 | 103 | 6.4 | 17.7 | 0.00 | 0.00 | 0.00 | 34 | 1012.1 |
| 20260506100024 | 12 | 115 | 4.8 | 16.1 | 0.00 | 0.00 | 0.00 | 35 | 1012.1 |
| 20260506094520 | 12 | 179 | 9.7 | 24.1 | 0.00 | 0.00 | 0.00 | 37 | 1012.2 |
| 20260506093028 | 12 | 76 | 8.0 | 14.5 | 0.00 | 0.00 | 0.00 | 36 | 1012.2 |
| 20260506091516 | 11 | 49 | 8.0 | 17.7 | 0.00 | 0.00 | 0.00 | 37 | 1012.3 |
| 20260506090012 | 11 | 82 | 9.7 | 22.5 | 0.00 | 0.00 | 0.00 | 37 | 1012.3 |
| 20260506084515 | 11 | 80 | 12.9 | 24.1 | 0.00 | 0.00 | 0.00 | 38 | 1012.5 |
| 20260506083007 | 12 | 107 | 8.0 | 16.1 | 0.00 | 0.00 | 0.00 | 37 | 1012.5 |
| 20260506081507 | 10 | 83 | 8.0 | 19.3 | 0.00 | 0.00 | 0.00 | 39 | 1012.6 |
| 20260506080111 | 11 | 86 | 9.7 | 17.7 | 0.00 | 0.00 | 0.00 | 37 | 1012.6 |